HAWK-C

Last updated on July 6, 2021, 3:44 p.m. UTC

1 43799U 18099AT  21186.73519447  .00000544  00000-0  53068-4 0  9996
2 43799  97.6614 257.7300 0014651 359.8489   0.2726 14.96326611142029
UTC
Height (km)
Latitude
Longitude
Inclination
Orbital Period
UTC large
Height (km)
Speed (km/s)
/
Latitude / Longitude
Inclination (degrees)
Orbital Period (minutes)
Azimuth
Elevation
Range (km)
Doppler Factor
iOS Compass Heading
iOS Angle